SCP
0 0 0 0 0 0 0 0 0 0 0 0 0 0 0 0 0 0 0 0 0 0 0 0 0 0 0 0 0 0 0 0 0 0 0 0 0 0
0 0 0 0 0 0 0 0 0 0 0 0 0 0 0 0 0 0 0 0 0 0 0 0 0 0 0 0 0 0 0 0 0 0 0 0 0 0
0 0 0 0 0 0 0 0 0 0 0 0 0 0 0 0 0 0 0 0 0 0 0 0 0 0 0 0 0 0 0 0 0 0 0 0 0 0
0 0 0 0 0 0 0 0 0 0 0 0 0 0 0 0 0 0 0 0 0 0 0 0 0 0 0 0 0 0 0 0 0 0 0 0 0 0
0 0 0 0 0 0 0 0 0 0 0 0 0 0 0 0 0 0 0 0 0 0 0 0 0 0 0 0 0 0 0 0 0 0 0 0 0 0
0 0 0 0 0 0 0 0 0 0 0 0 0 0 0 0 0 0 0 0 -0 0 0 0 0 0 0 0 0 0 0 0 0 0 0 0 0 0
0 0 0 0 0 0 0 0 0 0 0 0 0 0 0 0 0 0 0 0 0 0 0 0 0 0 0 0 0 0 0 0 0 0 0 0 0 0
0 0 0 0 0 0 0 0 0 0 0 0 0 0 0 0 0 0 0 0 0 0 0 0 0 0 0 0 0 0 0 0 0 0 0 0 0 0
0 0 0 0 0 0 0 0 0 0 0 0 0 0 0 0 0 0 0 0 0 0 0 0 0 0 0 0 0 0 0 0 0 0 0 0 0 0
0 0 0 0 0 0 0 0 0 0 0 0 0 0 0 0 0 0 0 0 0 0 0 0 0 0 0 -0 -0 0 0 0 0 0 0 0 0 0
0 0 0 0 0 0 0 0 0 0 0 0 0 0 0 0 0 0 0 0 0 0 0 0 0 0 0 0 0 0 0 0 0 0 0 0 0 0
0 0 0 0 0 0 0 0 0 0 0 0 0 0 0 0 0 0 0 0 0 0 0 0 0 0 0 0 0 0 0 0 0 0 0 0 0 0
0 0 0 0 0 0 0 0 0 0 0 0 0 0 0 0 0 0 0 0 0 0 0 0 0 0 0 0 0 0 0 0 0 0 -0 0 0 0
0 0 0 0 0 0 0 0 0 0 0 0 0 0 0 0 0 0 0 0 0 0 0 0 0 0 0 0 0 0 0 0 0 0 0 0 0 0
0 0 0 0 0 0 0 0 0 0 0 0 0 0 0 0 0 0 0 0 0 0 0 0 0 0 0 0 0 0 0 0 0 0 0 0 0 0
0 0 0 0 0 0 0 0 0 0 -0 0 0 0 0 0 0 0 0 0 0 0 0 0 0 0 0 0 0 0 0 0 -0 -0 -0 0 0 -0
0 0 0 0 0 0 0 0 0 0 0 -0 0 0 0 0 0 0 0 0 0 0 0 0 0 0 0 0 0 0 0 0 0 -0 -0 0 0 0
0 0 0 0 0 0 0 0 0 0 0 -0 -0 -0 0 -0 0 0 0 0 0 0 0 0 0 0 0 0 0 0 0 0 0 0 0 0 0 0
0 0 0 0 0 0 0 0 0 0 -0 -0 -0 -0 0 0 -0 0 0 0 0 0 0 0 0 0 0 0 0 0 0 0 -0 0 0 0 0 0
0 0 0 0 0 0 0 0 0 0 -0 0 -0 -0 -0 -0 -0 0 0 -0 0 0 0 0 0 0 0 0 0 0 0 0 0 0 0 0 0 0
0 0 0 0 0 -0 -0 0 -0 0 -0 -0 -0 0 -0 -0 -0 0 0 -0 -0 0 0 0 0 0 0 0 0 0 0 0 0 0 0 0 0 0
0 0 0 -0 0 0 0 0 0 0 0 0 -0 0 -0 -0 -0 -0 -0 -0 -0 0 0 0 0 0 0 0 0 0 0 0 0 0 0 0 0 0
0 0 0 -0 -0 0 0 0 0 0 0 0 0 0 0 -0 -0 -0 -0 -0 -0 0 -0 0 0 0 0 -0 0 0 0 0 0 0 0 -0 -0 -0
Wind_Speed_500mb
14 19 23 28 31 31 24 24 28 32 44 42 52 50 55 52 45 50 52 59 58 59 61 65 65 66 68 70 70 70 67 63 63 59 53 50 45 49
19 24 27 28 26 26 26 25 25 31 36 49 51 52 45 48 51 59 66 75 74 72 71 69 68 69 70 72 70 67 64 67 69 68 64 57 50 49
21 23 25 24 24 30 32 28 29 34 44 48 43 44 49 49 60 65 70 74 71 71 68 65 61 55 59 65 68 71 67 70 74 73 68 54 47 48
20 22 22 27 33 34 33 37 33 32 34 43 48 46 49 60 63 69 64 63 68 67 64 53 48 55 52 54 60 67 71 71 67 65 58 44 42 43
22 25 28 31 33 35 35 35 33 35 33 39 46 46 49 50 60 53 64 70 64 68 61 55 58 48 35 36 43 42 44 45 37 33 34 36 42 43
25 28 32 34 34 33 35 37 37 40 40 43 48 49 49 52 49 57 71 67 74 66 55 63 55 41 38 42 40 36 34 27 23 27 32 38 42 40
25 28 30 30 33 35 35 39 46 43 41 44 47 48 53 55 54 59 63 68 79 51 71 65 54 45 40 42 39 36 30 27 27 31 33 33 36 37
24 25 26 29 31 33 36 40 43 46 50 49 43 48 51 49 52 60 62 69 83 68 80 74 51 44 45 43 40 27 22 24 30 29 32 33 35 34
25 27 27 32 37 40 42 41 40 43 45 50 50 50 53 53 63 62 64 68 72 73 72 74 52 51 58 31 19 22 24 29 30 34 42 40 39 38
27 29 33 38 42 45 43 42 43 45 48 48 47 53 53 52 55 56 60 68 66 62 47 61 62 66 54 12 10 43 32 27 36 45 43 43 42 42
30 32 35 39 43 42 44 47 48 48 46 45 45 44 48 46 53 57 60 71 76 72 47 66 68 84 70 30 29 51 33 32 30 32 35 40 46 50
27 31 39 43 45 46 47 49 51 54 54 47 43 44 47 51 54 51 53 63 63 59 51 66 70 71 53 43 67 54 48 50 37 27 26 29 33 41
29 36 42 42 43 44 45 49 51 52 53 53 53 53 54 54 53 56 54 54 57 52 48 46 63 65 60 83 74 61 63 47 41 33 48 37 36 41
34 36 37 37 37 39 43 46 50 55 57 57 56 57 59 60 61 58 60 63 40 44 46 38 50 55 61 68 75 66 51 48 44 57 57 35 22 24
33 32 29 31 36 42 46 49 56 61 62 61 59 57 58 59 60 62 59 66 57 55 50 48 53 57 51 60 58 58 62 68 40 62 38 29 23 20
29 27 29 35 40 45 51 58 62 65 64 60 56 56 58 63 62 64 63 66 72 72 63 58 57 52 56 39 39 47 46 59 65 43 39 24 17 20
30 34 38 43 47 51 52 57 61 64 65 62 58 60 64 67 64 62 60 63 70 91 88 76 68 60 51 35 46 48 61 68 51 37 33 21 28 17
34 39 42 45 48 50 53 56 58 63 64 61 60 63 70 67 67 63 61 64 70 94 89 83 82 84 67 65 54 65 72 66 46 32 26 32 29 20
40 40 41 43 45 47 51 54 55 59 60 60 63 66 73 71 66 63 66 69 74 94 92 84 79 79 80 71 55 60 63 63 50 28 29 30 28 34
39 39 38 40 42 47 50 52 52 57 58 59 64 70 77 70 65 66 67 69 78 88 99 86 76 72 65 55 57 65 48 55 53 42 31 32 25 36
32 35 37 40 43 46 48 49 48 55 58 59 67 76 78 73 64 62 72 73 73 80 103 94 80 65 57 54 58 55 51 51 55 49 22 13 23 37
28 31 36 39 41 45 47 48 47 52 58 62 67 73 76 72 63 62 69 70 70 72 93 93 83 71 63 59 58 53 47 46 57 56 57 32 12 19
28 31 34 38 41 44 47 48 47 50 58 62 66 71 75 74 67 60 60 65 68 73 90 101 92 78 69 57 48 50 46 44 53 65 62 55 53 52
Wind_Direction_500mb
334 328 323 319 319 318 324 323 320 318 318 319 318 316 315 320 321 321 316 315 313 312 310 306 304 301 295 291 289 288 285 284 285 291 284 279 269 267
327 325 322 324 326 329 329 330 329 318 312 318 314 315 319 322 321 321 319 319 317 314 310 309 304 299 295 290 285 279 275 278 280 283 282 285 270 264
329 329 333 334 336 334 332 335 332 324 314 313 318 320 323 321 321 319 320 321 319 319 318 315 309 304 296 290 284 277 273 271 279 280 281 278 268 266
345 342 342 343 342 337 338 340 341 342 326 317 324 326 321 324 325 328 332 330 326 324 325 321 314 315 311 300 292 282 277 276 273 274 274 272 273 267
0 357 -0 1 6 9 6 360 351 342 332 324 325 325 326 328 329 330 333 335 331 332 332 324 332 326 327 325 316 307 299 292 280 263 256 266 276 274
17 18 19 20 14 7 2 357 346 343 333 330 328 330 333 329 329 330 333 336 333 341 338 324 335 335 326 319 314 303 301 292 276 267 271 277 283 280
30 28 21 15 9 5 1 350 343 340 336 336 334 333 332 333 333 330 325 327 335 337 333 336 339 338 333 331 326 302 292 290 283 280 282 278 281 277
35 28 19 12 9 5 358 351 346 343 343 340 337 332 330 333 330 329 327 328 334 343 338 337 343 332 333 326 314 306 281 275 284 284 285 284 275 274
36 31 21 9 6 4 1 4 356 353 350 347 339 336 332 335 332 331 331 331 330 339 339 330 343 327 335 337 22 360 319 286 276 288 294 278 277 271
37 25 16 10 9 9 7 5 4 2 358 353 345 342 338 331 334 334 335 333 336 339 339 326 338 338 355 2 344 344 333 314 291 294 293 275 278 276
32 23 21 19 18 12 9 7 6 4 6 358 355 349 349 342 341 347 344 345 342 342 350 334 334 336 337 338 309 344 341 325 306 291 288 282 277 274
38 32 32 24 16 12 8 6 5 4 6 7 4 2 360 359 359 353 345 347 347 341 350 337 332 340 325 330 333 334 332 332 325 314 297 287 272 272
47 38 30 20 15 11 10 10 8 8 11 9 7 7 7 3 359 359 354 349 347 333 343 338 322 330 322 316 326 332 333 333 335 327 327 303 280 275
44 36 28 19 16 17 17 14 13 15 15 13 8 6 6 3 0 0 359 356 353 348 345 338 328 331 324 319 319 332 338 337 339 336 329 321 297 277
43 34 27 25 26 27 23 19 21 19 18 17 13 6 2 358 360 358 360 356 1 354 356 355 349 344 338 330 325 340 345 339 339 335 338 340 319 300
47 42 40 40 36 32 27 24 23 22 20 16 10 5 2 4 3 1 355 352 359 2 9 7 2 358 350 355 351 347 337 339 342 353 346 343 332 319
48 43 39 36 33 32 29 25 22 21 20 18 12 7 5 7 4 1 355 351 356 6 6 6 8 6 10 5 3 353 342 351 357 1 354 10 2 358
49 45 39 35 32 28 24 23 19 19 19 16 13 10 7 6 4 360 356 356 355 8 8 7 6 4 7 16 15 4 351 354 7 21 18 25 14 46
50 44 39 35 31 29 26 24 20 16 16 14 12 10 7 9 5 359 357 357 358 6 11 10 10 8 359 353 10 14 352 358 16 43 33 37 22 57
47 42 36 31 27 27 24 21 18 15 14 10 10 10 11 7 4 359 358 357 358 358 9 13 14 11 5 356 354 13 14 10 13 19 43 43 43 71
41 36 32 29 26 25 22 20 16 15 14 10 10 10 11 8 2 356 358 2 359 357 5 9 10 15 15 13 10 6 18 29 25 21 22 68 59 77
35 32 29 26 24 24 20 17 14 12 12 12 11 9 8 9 1 356 359 357 355 355 358 11 15 17 19 18 18 21 23 36 42 37 41 44 55 84
30 26 23 23 22 21 19 15 12 9 11 10 9 8 6 5 4 357 357 355 354 355 359 9 15 17 17 17 22 30 24 36 50 50 54 64 81 92
Wind_Speed_850mb
14 19 23 28 31 31 24 24 28 32 44 42 52 50 55 52 45 50 52 59 58 59 61 65 65 66 68 70 70 70 67 63 63 59 53 50 45 49
19 24 27 28 26 26 26 25 25 31 36 49 51 52 45 48 51 59 66 75 74 72 71 69 68 69 70 72 70 67 64 67 69 68 64 57 50 49
21 23 25 24 24 30 32 28 29 34 44 48 43 44 49 49 60 65 70 74 71 71 68 65 61 55 59 65 68 71 67 70 74 73 68 54 47 48
20 22 22 27 33 34 33 37 33 32 34 43 48 46 49 60 63 69 64 63 68 67 64 53 48 55 52 54 60 67 71 71 67 65 58 44 42 43
22 25 28 31 33 35 35 35 33 35 33 39 46 46 49 50 60 53 64 70 64 68 61 55 58 48 35 36 43 42 44 45 37 33 34 36 42 43
25 28 32 34 34 33 35 37 37 40 40 43 48 49 49 52 49 57 71 67 74 66 55 63 55 41 38 42 40 36 34 27 23 27 32 38 42 40
25 28 30 30 33 35 35 39 46 43 41 44 47 48 53 55 54 59 63 68 79 51 71 65 54 45 40 42 39 36 30 27 27 31 33 33 36 37
24 25 26 29 31 33 36 40 43 46 50 49 43 48 51 49 52 60 62 69 83 68 80 74 51 44 45 43 40 27 22 24 30 29 32 33 35 34
25 27 27 32 37 40 42 41 40 43 45 50 50 50 53 53 63 62 64 68 72 73 72 74 52 51 58 31 19 22 24 29 30 34 42 40 39 38
27 29 33 38 42 45 43 42 43 45 48 48 47 53 53 52 55 56 60 68 66 62 47 61 62 66 54 12 10 43 32 27 36 45 43 43 42 42
30 32 35 39 43 42 44 47 48 48 46 45 45 44 48 46 53 57 60 71 76 72 47 66 68 84 70 30 29 51 33 32 30 32 35 40 46 50
27 31 39 43 45 46 47 49 51 54 54 47 43 44 47 51 54 51 53 63 63 59 51 66 70 71 53 43 67 54 48 50 37 27 26 29 33 41
29 36 42 42 43 44 45 49 51 52 53 53 53 53 54 54 53 56 54 54 57 52 48 46 63 65 60 83 74 61 63 47 41 33 48 37 36 41
34 36 37 37 37 39 43 46 50 55 57 57 56 57 59 60 61 58 60 63 40 44 46 38 50 55 61 68 75 66 51 48 44 57 57 35 22 24
33 32 29 31 36 42 46 49 56 61 62 61 59 57 58 59 60 62 59 66 57 55 50 48 53 57 51 60 58 58 62 68 40 62 38 29 23 20
29 27 29 35 40 45 51 58 62 65 64 60 56 56 58 63 62 64 63 66 72 72 63 58 57 52 56 39 39 47 46 59 65 43 39 24 17 20
30 34 38 43 47 51 52 57 61 64 65 62 58 60 64 67 64 62 60 63 70 91 88 76 68 60 51 35 46 48 61 68 51 37 33 21 28 17
34 39 42 45 48 50 53 56 58 63 64 61 60 63 70 67 67 63 61 64 70 94 89 83 82 84 67 65 54 65 72 66 46 32 26 32 29 20
40 40 41 43 45 47 51 54 55 59 60 60 63 66 73 71 66 63 66 69 74 94 92 84 79 79 80 71 55 60 63 63 50 28 29 30 28 34
39 39 38 40 42 47 50 52 52 57 58 59 64 70 77 70 65 66 67 69 78 88 99 86 76 72 65 55 57 65 48 55 53 42 31 32 25 36
32 35 37 40 43 46 48 49 48 55 58 59 67 76 78 73 64 62 72 73 73 80 103 94 80 65 57 54 58 55 51 51 55 49 22 13 23 37
28 31 36 39 41 45 47 48 47 52 58 62 67 73 76 72 63 62 69 70 70 72 93 93 83 71 63 59 58 53 47 46 57 56 57 32 12 19
28 31 34 38 41 44 47 48 47 50 58 62 66 71 75 74 67 60 60 65 68 73 90 101 92 78 69 57 48 50 46 44 53 65 62 55 53 52
Wind_Direction_850mb
334 328 323 319 319 318 324 323 320 318 318 319 318 316 315 320 321 321 316 315 313 312 310 306 304 301 295 291 289 288 285 284 285 291 284 279 269 267
327 325 322 324 326 329 329 330 329 318 312 318 314 315 319 322 321 321 319 319 317 314 310 309 304 299 295 290 285 279 275 278 280 283 282 285 270 264
329 329 333 334 336 334 332 335 332 324 314 313 318 320 323 321 321 319 320 321 319 319 318 315 309 304 296 290 284 277 273 271 279 280 281 278 268 266
345 342 342 343 342 337 338 340 341 342 326 317 324 326 321 324 325 328 332 330 326 324 325 321 314 315 311 300 292 282 277 276 273 274 274 272 273 267
0 357 -0 1 6 9 6 360 351 342 332 324 325 325 326 328 329 330 333 335 331 332 332 324 332 326 327 325 316 307 299 292 280 263 256 266 276 274
17 18 19 20 14 7 2 357 346 343 333 330 328 330 333 329 329 330 333 336 333 341 338 324 335 335 326 319 314 303 301 292 276 267 271 277 283 280
30 28 21 15 9 5 1 350 343 340 336 336 334 333 332 333 333 330 325 327 335 337 333 336 339 338 333 331 326 302 292 290 283 280 282 278 281 277
35 28 19 12 9 5 358 351 346 343 343 340 337 332 330 333 330 329 327 328 334 343 338 337 343 332 333 326 314 306 281 275 284 284 285 284 275 274
36 31 21 9 6 4 1 4 356 353 350 347 339 336 332 335 332 331 331 331 330 339 339 330 343 327 335 337 22 360 319 286 276 288 294 278 277 271
37 25 16 10 9 9 7 5 4 2 358 353 345 342 338 331 334 334 335 333 336 339 339 326 338 338 355 2 344 344 333 314 291 294 293 275 278 276
32 23 21 19 18 12 9 7 6 4 6 358 355 349 349 342 341 347 344 345 342 342 350 334 334 336 337 338 309 344 341 325 306 291 288 282 277 274
38 32 32 24 16 12 8 6 5 4 6 7 4 2 360 359 359 353 345 347 347 341 350 337 332 340 325 330 333 334 332 332 325 314 297 287 272 272
47 38 30 20 15 11 10 10 8 8 11 9 7 7 7 3 359 359 354 349 347 333 343 338 322 330 322 316 326 332 333 333 335 327 327 303 280 275
44 36 28 19 16 17 17 14 13 15 15 13 8 6 6 3 0 0 359 356 353 348 345 338 328 331 324 319 319 332 338 337 339 336 329 321 297 277
43 34 27 25 26 27 23 19 21 19 18 17 13 6 2 358 360 358 360 356 1 354 356 355 349 344 338 330 325 340 345 339 339 335 338 340 319 300
47 42 40 40 36 32 27 24 23 22 20 16 10 5 2 4 3 1 355 352 359 2 9 7 2 358 350 355 351 347 337 339 342 353 346 343 332 319
48 43 39 36 33 32 29 25 22 21 20 18 12 7 5 7 4 1 355 351 356 6 6 6 8 6 10 5 3 353 342 351 357 1 354 10 2 358
49 45 39 35 32 28 24 23 19 19 19 16 13 10 7 6 4 360 356 356 355 8 8 7 6 4 7 16 15 4 351 354 7 21 18 25 14 46
50 44 39 35 31 29 26 24 20 16 16 14 12 10 7 9 5 359 357 357 358 6 11 10 10 8 359 353 10 14 352 358 16 43 33 37 22 57
47 42 36 31 27 27 24 21 18 15 14 10 10 10 11 7 4 359 358 357 358 358 9 13 14 11 5 356 354 13 14 10 13 19 43 43 43 71
41 36 32 29 26 25 22 20 16 15 14 10 10 10 11 8 2 356 358 2 359 357 5 9 10 15 15 13 10 6 18 29 25 21 22 68 59 77
35 32 29 26 24 24 20 17 14 12 12 12 11 9 8 9 1 356 359 357 355 355 358 11 15 17 19 18 18 21 23 36 42 37 41 44 55 84
30 26 23 23 22 21 19 15 12 9 11 10 9 8 6 5 4 357 357 355 354 355 359 9 15 17 17 17 22 30 24 36 50 50 54 64 81 92